TimeHST,TemperatureF,Dew PointF,Humidity,Sea Level PressureIn,VisibilityMPH,Wind Direction,Wind SpeedMPH,Gust SpeedMPH,PrecipitationIn,Events,Conditions,WindDirDegrees,DateUTC
12:57 AM,71.6,62.1,72,30.17,7.0,ENE,10.4,24.2,N/A,,Mostly Cloudy,60,2013-03-02 10:57:00
1:57 AM,73.4,60.1,63,30.15,7.0,ENE,15.0,27.6,N/A,,Scattered Clouds,70,2013-03-02 11:57:00
2:57 AM,73.4,57.0,56,30.14,7.0,ENE,12.7,23.0,N/A,,Mostly Cloudy,60,2013-03-02 12:57:00
3:57 AM,-9999,-9999,N/A,30.12,-9999.0,ENE,9.2,26.5,N/A,,Overcast,70,2013-03-02 13:57:00
4:57 AM,73.4,60.1,63,30.12,7.0,ENE,13.8,23.0,N/A,,Scattered Clouds,60,2013-03-02 14:57:00
5:57 AM,73.4,59.0,61,30.13,7.0,East,10.4,28.8,N/A,,Scattered Clouds,80,2013-03-02 15:57:00
6:57 AM,73.4,57.9,58,30.14,7.0,ENE,17.3,27.6,N/A,,Scattered Clouds,70,2013-03-02 16:57:00
7:57 AM,73.4,57.0,56,30.17,7.0,ENE,17.3,23.0,N/A,,Scattered Clouds,70,2013-03-02 17:57:00
8:57 AM,73.4,55.9,54,30.18,7.0,ENE,15.0,25.3,N/A,,Scattered Clouds,70,2013-03-02 18:57:00
9:57 AM,75.2,57.0,53,30.19,7.0,ENE,12.7,24.2,0.00,,Mostly Cloudy,70,2013-03-02 19:57:00
10:57 AM,75.2,55.0,49,30.18,7.0,ENE,15.0,26.5,N/A,,Mostly Cloudy,70,2013-03-02 20:57:00
11:57 AM,77.0,55.9,48,30.17,7.0,ENE,12.7,24.2,N/A,,Mostly Cloudy,60,2013-03-02 21:57:00
12:57 PM,78.8,57.0,47,30.14,7.0,ENE,13.8,26.5,N/A,,Mostly Cloudy,60,2013-03-02 22:57:00
1:57 PM,80.6,55.0,41,30.12,7.0,ENE,12.7,21.9,N/A,,Mostly Cloudy,70,2013-03-02 23:57:00
2:57 PM,80.6,53.1,38,30.10,7.0,ENE,15.0,21.9,N/A,,Mostly Cloudy,70,2013-03-03 00:57:00
3:57 PM,78.8,55.9,45,30.10,7.0,ENE,11.5,21.9,N/A,,Mostly Cloudy,60,2013-03-03 01:57:00
4:57 PM,75.2,59.0,57,30.11,7.0,NE,11.5,20.7,N/A,,Mostly Cloudy,50,2013-03-03 02:57:00
5:57 PM,75.2,59.0,57,30.12,7.0,ENE,9.2,17.3,N/A,,Mostly Cloudy,60,2013-03-03 03:57:00
6:57 PM,75.2,59.0,57,30.14,7.0,ENE,9.2,18.4,N/A,,Mostly Cloudy,60,2013-03-03 04:57:00
7:57 PM,75.2,59.0,57,30.17,7.0,NE,15.0,20.7,N/A,,Mostly Cloudy,50,2013-03-03 05:57:00
8:57 PM,73.4,57.9,58,30.19,7.0,ENE,13.8,20.7,N/A,,Overcast,60,2013-03-03 06:57:00
9:57 PM,73.4,57.9,58,30.20,7.0,NE,12.7,20.7,N/A,,Overcast,50,2013-03-03 07:57:00
10:57 PM,71.6,57.9,62,30.21,7.0,ENE,6.9,17.3,N/A,,Overcast,60,2013-03-03 08:57:00
11:57 PM,71.6,57.9,62,30.20,7.0,NE,16.1,23.0,N/A,,Overcast,50,2013-03-03 09:57:00